Regional Weather Roundup
Issued by NWS

Home | Current Version | Previous Version | Graphics & Text | Print | Product List | Glossary On
Versions: 1 2 3 4 5 6 7 8 9 10 11 12 13 14 15 16 17 18 19 20 21 22 23 24 25 26 27 28 29 30 31 32 33 34 35 36 37 38 39 40 41 42 43 44 45 46 47 48 49 50
000
ASUS43 KMKX 250920
RWRWI

WISCONSIN REGIONAL WEATHER ROUNDUP
NATIONAL WEATHER SERVICE MILWAUKEE/SULLIVAN WI
300 AM CST SUN FEB 25 2018

NOTE: "FAIR" INDICATES FEW OR NO CLOUDS BELOW 12,000 FEET WITH NO
SIGNIFICANT WEATHER AND/OR OBSTRUCTIONS TO VISIBILITY.

WIZ001-002-006>008-014>016-023>028-251000-
NORTHWEST WISCONSIN

CITY           SKY/WX    TMP DP  RH WIND       PRES   REMARKS
SUPERIOR ARPT  LGT SNOW  28  28  99 CALM      29.32F
ASHLAND        LGT SNOW  27  26  96 SW6       29.29F FOG     WCI  20
HAYWARD        LGT SNOW  29  27  92 SW15      29.31F FOG     WCI  18
SIREN          LGT SNOW  26  24  92 W14G20    29.39S WCI  15
CUMBERLAND     LGT SNOW  27  23  86 W18       29.39R WCI  13
RICE LAKE      LGT SNOW  27  25  93 SW15      29.41S WCI  15
CHETEK         LGT SNOW  26  23  88 W14G21    29.41R WCI  15
LADYSMITH      LGT SNOW  30  28  93 W17G23    29.37R WCI  18
EAU CLAIRE     LGT SNOW  22  18  85 SW21G32   29.47R FOG     WCI   6
MENOMONIE      LGT SNOW  22  19  85 SW24      29.48S WCI   6
NEW RICHMOND   CLOUDY    21  17  85 SW18G25   29.47R FOG     WCI   6
OSCEOLA        LGT SNOW  22  22 100 SW17G24   29.49R WCI   8
$$

WIZ003>005-009-010-017-018-251000-
NORTH CENTRAL WISCONSIN

CITY           SKY/WX    TMP DP  RH WIND       PRES   REMARKS
MANITOWISH WTR LGT SNOW  28  28 100 S7        29.25F WCI  21
ARBOR VITAE    LGT SNOW  32  30  94 SW7       29.26F WCI  25
WOODRUFF       LGT SNOW  32  30  94 SW7       29.26F WCI  25
RHINELANDER    LGT SNOW  31  29  92 SW12      29.27F FOG     WCI  22
EAGLE RIVER    LGT SNOW  29  29 100 SW5       29.24F WCI  24
LAND O LAKES   LGT SNOW  29  28  96 S5        29.26F WCI  24
PHILLIPS       FLURRIES  29  28  96 SW10G18   29.29S WCI  20
TOMAHAWK       LGT SNOW  30  29  95 SW3       29.30F
MEDFORD        LGT SNOW  28  26  91 W22G32    29.34R WCI  15
MERRILL        MIX PCPN  31  29  92 W18G30    29.32S WCI  19
$$

WIZ029-030-035-036-043>047-251000-
CENTRAL WISCONSIN

CITY           SKY/WX    TMP DP  RH WIND       PRES   REMARKS
WAUSAU         CLOUDY    32  28  85 W15G28    29.33R WCI  22
MOSINEE        CLOUDY    32  32 100 SW22G28   29.36S WCI  19
MARSHFIELD     MIX PCPN  26  23  88 W25G37    29.39R FOG     WCI  11
STEVENS POINT  CLOUDY    30  29  97 SW14      29.39R WCI  19
WAUPACA        CLOUDY    35  32  88 SW25G33   29.40R WCI  23
WAUTOMA        CLOUDY    32  27  81 W20G38    29.45R WCI  20
WISC RAPIDS    CLOUDY    27  22  81 MISG      29.45R
CAMP DOUGLAS   MIX PCPN  27  23  87 W24G37    29.51R WCI  12
$$

WIZ011>013-019>022-031-037>040-048>050-251000-
NORTHEAST WISCONSIN

CITY           SKY/WX    TMP DP  RH WIND       PRES   REMARKS
ANTIGO         MIX PCPN  31  31 100 SW16G22   29.29F WCI  20
SHAWANO        CLOUDY    35  33  93 SW12G20   29.33F WCI  27
OCONTO         CLOUDY    32  32 100 CALM      29.32F
STURGEON BAY   CLOUDY    36  36 100 SW16      29.30F WCI  26
GREEN BAY      CLOUDY    36  31  82 W21G30    29.35F WCI  25
MANITOWOC      CLOUDY    37  34  87 W20G31    29.37S WCI  27
APPLETON       LGT RAIN  34  32  93 W18G29    29.37R WCI  23
CLINTONVILLE   MIX PCPN  34  31  90 W22G30    29.36S WCI  22
OSHKOSH        CLOUDY    35  31  85 W14G29    29.40R WCI  26
$$

WIZ032>034-041-042-053>061-251000-
SOUTHWEST WISCONSIN

CITY           SKY/WX    TMP DP  RH WIND       PRES   REMARKS
LA CROSSE      CLOUDY    25  19  78 W14G28    29.58S WCI  13
SPARTA         CLOUDY    24  20  87 SW10G21   29.56R WCI  13
VIROQUA        CLOUDY    22  21  96 W16G23    29.56R WCI   9
BOSCOBEL       CLOUDY    28  21  75 SW15G29   29.63R WCI  16
PRAIRIE DU CHI CLOUDY    28  20  72 W21G30    29.65R WCI  15
PLATTEVILLE    CLOUDY    29  26  90 W20G33    29.64R WCI  16
$$

WIZ056-057-062-063-064-067-068-251000-
SOUTH CENTRAL WISCONSIN

CITY           SKY/WX    TMP DP  RH WIND       PRES   REMARKS
REEDSBURG      CLOUDY    27  22  84 W30G38    29.55R WCI  10
BARABOO/DELLS  CLOUDY    29  24  81 W18G30    29.50R WCI  16
LONE ROCK      CLOUDY    27  22  81 W21G33    29.60R WCI  13
MINERAL POINT  CLOUDY    30  28  93 W28G38    29.59R WCI  16
MADISON        CLOUDY    31  25  78 W12G32    29.54R WCI  22
MIDDLETON      CLOUDY    31  25  78 W26G40    29.53S WCI  17
WATERTOWN      CLOUDY    33  28  83 W22G37    29.51R WCI  20
MONROE         CLOUDY    30  27  86 W33G47    29.59R WCI  14
JANESVILLE     CLOUDY    32  32 100 W21G30    29.59R WCI  20
$$

WIZ051-052-058>065-066-070>072-251000-
SOUTHEAST WISCONSIN

CITY           SKY/WX    TMP DP  RH WIND       PRES   REMARKS
MILWAUKEE      CLOUDY    37  31  78 W21G38    29.50R WCI  26
WAUKESHA       MOCLDY    32  27  80 W23G38    29.51R WCI  19
MILWAUKEE/TIMM CLOUDY    34  28  80 W28G43    29.48R WCI  20
RACINE         CLOUDY    36  31  82 W18G41    29.52R WCI  26
BURLINGTON     MOCLDY    33  27  77 W20G32    29.56R WCI  21
KENOSHA        CLOUDY    35  29  78 W25G45    29.53R WCI  23
FOND DU LAC    FLURRIES  35  29  78 W20G29    29.43R WCI  24
SHEBOYGAN      CLOUDY    37  33  85 W21G33    29.40R WCI  26
WEST BEND      CLOUDY    34  32  93 W21G37    29.43R WCI  22
JUNEAU         CLOUDY    32  27  82 SW29G38   29.49R WCI  18
$$

LSZ147-162-251000-
LAKE SUPERIOR

STATION/POSITION TIME  TEMP    WIND        PRES    WAVE
                       AIR SEA DIR/SP/G            HT/PER
                 (UTC) (F)     (DEG/KT/KT) (MB)    (FT/S)
DEVILS ISLAND    0900   29      90/ 10/ 11  992.4F
SAXON HARBOR     0840   28      CALM  /  1  991.9F
$$

LMZ867-665-643>646-251000-
LAKE MICHIGAN

STATION/POSITION TIME  TEMP    WIND        PRES    WAVE
                       AIR SEA DIR/SP/G            HT/PER
                 (UTC) (F)     (DEG/KT/KT) (MB)    (FT/S)
NORTHPORT PIER   0840   32                  993.6F
KEWAUNEE LAKESHO 0854   37     220/ 10/ 14  992.9F
SHEBOYGAN LAKESH 0900   38     250/ 24/ 31  995.5R
PORT WASHINGTON  0909   37     260/ 13/ 26  997.6
KENOSHA   LAKESH 0900   36     250/ 24/ 33 1001.0
$$

TC  - TEMPERATURE IN CELSIUS
VSB - VISIBILITY IN STATUTE MILES
WCI - WIND CHILL INDEX
HX  - HEAT INDEX




USA.gov is the U.S. government's official web portal to all federal, state and local government web resources and services.